Location: Unspecified
(0.0000°N, 0.0000°E)
Time: 02:49:40
(UTC+00:00)

S-56A Canister/Altair - Visible Passes

Search period start: 26 April 2015 00:00
Search period end: 06 May 2015 00:00
Orbit: 635 x 2500 km, 38.9° (Epoch: 25 April)

Date Brightness Start Highest point End Pass type
(mag) Time Alt. Az. Time Alt. Az. Time Alt. Az.
26 Apr 9.7 05:02:48 10° S 05:06:29 17° SSE 05:09:48 10° ESE visible
26 Apr 10.5 19:42:16 10° WNW 19:55:55 48° SW 20:05:50 21° SSE visible
26 Apr 11.5 21:57:07 10° WSW 22:03:19 14° SW 22:03:19 14° SW visible
27 Apr 10.0 04:30:42 10° S 04:34:04 15° SSE 04:37:10 10° ESE visible
27 Apr 10.5 19:09:09 10° WNW 19:22:36 53° SW 19:35:42 14° SSE visible
27 Apr 11.3 21:22:07 10° WSW 21:31:22 17° SSW 21:33:12 17° SSW visible
28 Apr 10.2 03:59:04 11° S 04:01:35 13° SSE 04:04:25 10° ESE visible
28 Apr 10.4 18:36:12 10° WNW 18:49:19 60° SW 19:04:07 10° SE visible
28 Apr 11.2 20:47:36 10° WSW 20:57:57 20° SSW 21:03:01 17° S visible
29 Apr 10.3 03:28:58 12° SSE 03:29:01 12° SSE 03:31:31 10° SE visible
29 Apr 7.7 05:28:18 10° SW 05:34:23 76° SE 05:39:00 10° NE visible
29 Apr 10.3 18:03:24 10° WNW 18:16:04 67° SW 18:31:09 10° SE visible
29 Apr 11.3 20:13:28 10° W 20:24:31 23° SSW 20:32:45 14° S visible
30 Apr 8.0 04:56:22 13° SW 05:02:13 60° SE 05:06:58 10° ENE visible
30 Apr 11.2 19:39:39 10° W 19:51:06 27° SSW 20:02:22 10° SSE visible
01 May 8.4 04:26:16 24° SSW 04:29:57 49° SE 04:34:53 10° ENE visible
01 May 11.1 19:06:05 10° W 19:17:42 30° SSW 19:29:46 10° SSE visible
02 May 8.8 03:56:09 36° S 03:57:37 41° SE 04:02:45 10° ENE visible
02 May 11.0 18:32:47 10° W 18:44:20 33° SW 18:57:02 10° SSE visible
02 May 11.6 20:51:44 10° SSW 20:54:37 10° SSW 20:56:23 10° SSW visible
03 May 9.2 03:26:01 35° SE 03:26:01 35° SE 03:30:34 10° E visible
03 May 8.6 05:23:43 10° WSW 05:29:20 31° NW 05:33:37 10° NNE visible
03 May 10.9 17:59:41 10° W 18:11:00 37° SW 18:24:11 10° SSE visible
03 May 11.5 20:15:23 10° SW 20:21:01 12° SSW 20:25:37 10° S visible
04 May 10.0 02:55:50 22° ESE 02:55:50 22° ESE 02:58:19 10° E visible
04 May 8.3 04:53:19 21° WSW 04:57:12 42° NW 05:01:58 10° NNE visible
04 May 11.5 19:40:22 10° SW 19:47:27 14° SSW 19:53:42 10° S visible
05 May 10.7 02:25:37 11° E 02:25:37 11° E 02:25:58 10° E visible
05 May 8.1 04:23:06 41° W 04:25:03 55° NW 04:30:14 10° NNE visible
05 May 11.5 19:05:57 10° WSW 19:13:54 16° SSW 19:21:23 10° S visible
